This is the latest recevied weather packets stored in our database for station/object AD7ZD. If no packets are shown the sender has not sent any weather packets the latest 10 day(s).
| Time | Temp. | Humidity | Pressure | Rain* | Wind** | Luminosity | Snow |
|---|---|---|---|---|---|---|---|
| 1777828591 | 17.78° C | 38% | 1010.1 hPa | 0 mm | - | 356 W/m² | - |
| 1777828289 | 17.78° C | 38% | 1010.1 hPa | 0 mm | - | 400 W/m² | - |
| 1777827981 | 17.78° C | 39% | 1010.3 hPa | 0 mm | - | 309 W/m² | - |
| 1777827677 | 17.22° C | 39% | 1010.3 hPa | 0 mm | - | 323 W/m² | - |
| 1777827374 | 17.22° C | 40% | 1010.3 hPa | 0 mm | - | 303 W/m² | - |
| 1777827070 | 17.22° C | 40% | 1010.3 hPa | 0 mm | - | 325 W/m² | - |
| 1777826767 | 16.67° C | 41% | 1010.4 hPa | 0 mm | - | 262 W/m² | - |
| 1777826465 | 16.67° C | 41% | 1010.4 hPa | 0 mm | - | 242 W/m² | - |
| 1777826161 | 16.67° C | 40% | 1010.3 hPa | 0 mm | - | 220 W/m² | - |
| 1777825859 | 16.11° C | 42% | 1010.3 hPa | 0 mm | - | 218 W/m² | - |
| 1777825555 | 16.67° C | 42% | 1010.4 hPa | 0 mm | - | 219 W/m² | - |
| 1777825254 | 16.11° C | 42% | 1010.5 hPa | 0 mm | - | 219 W/m² | - |
| 1777824950 | 16.67° C | 43% | 1010.4 hPa | 0 mm | - | 264 W/m² | - |
| 1777824646 | 16.67° C | 42% | 1010.4 hPa | 0 mm | - | 231 W/m² | - |
| 1777824344 | 16.11° C | 41% | 1010.4 hPa | 0 mm | - | 272 W/m² | - |
| 1777824039 | 16.11° C | 41% | 1010.5 hPa | 0 mm | - | 241 W/m² | - |
| 1777823736 | 16.11° C | 41% | 1010.6 hPa | 0 mm | - | 214 W/m² | - |
| 1777823433 | 16.11° C | 41% | 1010.5 hPa | 0 mm | - | 198 W/m² | - |
| 1777823130 | 16.67° C | 40% | 1010.4 hPa | 0 mm | - | 186 W/m² | - |
| 1777822827 | 16.11° C | 40% | 1010.3 hPa | 0 mm | - | 181 W/m² | - |
| 1777822526 | 16.11° C | 41% | 1010.6 hPa | 0 mm | - | 180 W/m² | - |
| 1777822223 | 16.11° C | 41% | 1010.5 hPa | 0 mm | - | 185 W/m² | - |
| 1777821920 | 16.11° C | 42% | 1010.5 hPa | 0 mm | - | 229 W/m² | - |
| 1777821618 | 15.56° C | 43% | 1010.8 hPa | 0 mm | - | 207 W/m² | - |
| 1777821316 | 15° C | 44% | 1010.8 hPa | 0 mm | - | 202 W/m² | - |
* Rain latest hour (hover to see other rain measurements)
** Current wind speed in m/s (hover to see current wind gust speed)